Location: Writing-on-Stone Provincial Park
(49.0825°N, 111.6163°W)
Time: 21:06:51
(UTC-07:00)

Amateur Radio Satellites - All Passes

Search period start: 20 December 2014 20:36
Search period end: 21 December 2014 20:36
Location: Writing-on-Stone Provincial Park, 49.0825°N, 111.6163°W

Satellite Date Start Highest point End Downlink Frequencies (MHz)
Time Altitude Azimuth
GOMX 1 20 Dec 20:39:33 20:43:41 89° 257° (WSW) 20:47:55 467.674
HUMSAT D 20 Dec 20:45:25 20:47:58 16° 59° (ENE) 20:50:32 437.325/437.525
Oscar 11 20 Dec 20:49:10 20:53:23 53° 71° (ENE) 20:57:39 145.826/435.025
DANDE 20 Dec 20:52:02 20:59:27 90° 124° (SE) 21:08:07 436.750
UKube-1 20 Dec 20:57:50 21:02:02 52° 70° (ENE) 21:06:16 .
HO-68 20 Dec 21:00:16 21:07:14 52° 260° (W) 21:14:14 435.675
BEESAT 2 20 Dec 21:00:54 21:04:44 32° 39° (NE) 21:08:32 435.950
AAUSAT CUBESAT 2 20 Dec 21:03:13 21:07:23 60° 259° (W) 21:11:36 437.432
DOVE 4 20 Dec 21:04:13 21:08:20 68° 258° (WSW) 21:12:35 437.250
CUBEBUG 2 20 Dec 21:10:15 21:14:21 55° 71° (ENE) 21:18:36 437.445
CANX-2 20 Dec 21:18:09 21:21:50 28° 266° (W) 21:25:33 2200.000
ZACube-1 20 Dec 21:20:07 21:24:11 51° 71° (ENE) 21:28:23 437.345
VELOX 1 20 Dec 21:22:42 21:26:43 35° 67° (ENE) 21:30:44 145.980
ESTCUBE 1 20 Dec 21:26:55 21:30:05 19° 60° (ENE) 21:33:16 437.505/2401.250
CINEMA 3 20 Dec 21:28:14 21:32:22 63° 259° (W) 21:36:39 145.822/145.860
COMPASS 1 20 Dec 21:39:40 21:43:08 24° 267° (W) 21:46:38 437.405
CUSAT 1 20 Dec 21:43:01 21:50:02 43° 269° (W) 21:57:51 437.405
UNISAT 6 20 Dec 21:43:43 21:44:51 11° 85° (E) 21:45:59 437.425
SEEDS 20 Dec 21:46:04 21:49:06 19° 269° (W) 21:52:10 437.485
FUNcube-1 20 Dec 21:46:40 21:50:52 87° 255° (WSW) 21:55:12 145.935
UWE-3 20 Dec 21:47:59 21:52:10 72° 258° (WSW) 21:56:30 435.000/436.395/437.385
CUTE 1.7 + AOD 2 20 Dec 21:50:22 21:52:56 15° 271° (W) 21:55:31 437.475
DELFI C3 20 Dec 21:54:19 21:58:12 40° 262° (W) 22:02:07 145.870
BRITE-PL 20 Dec 21:55:04 21:56:54 13° 272° (W) 21:58:43 437.365/2234.400
50 SAT 20 Dec 21:55:27 21:59:24 58° 72° (ENE) 22:03:26 437.505
PCSat 20 Dec 21:56:11 22:01:21 42° 45° (NE) 22:06:29 145.827
RS-15 20 Dec 21:58:05 22:08:44 52° 246° (WSW) 22:19:50 29.354- 29.394
BEESAT 3 20 Dec 21:58:50 22:03:03 84° 232° (SW) 22:07:12 437.485
YUBILEINY 20 Dec 22:02:51 22:05:57 12° 68° (ENE) 22:09:04 435.215
DX 1 20 Dec 22:03:25 22:07:24 35° 263° (W) 22:11:25 434.975-435.025
AISAT 20 Dec 22:05:32 22:09:58 90° 72° (ENE) 22:14:25 437.250
AIST 2 20 Dec 22:06:43 22:10:59 57° 47° (NE) 22:15:12 435.215
NANOSAT C BR1 20 Dec 22:06:54 22:07:04 10° 86° (E) 22:07:14 145.865
CUBEBUG 1 20 Dec 22:11:04 22:15:10 41° 69° (ENE) 22:19:16 437.445
SO-50 20 Dec 22:12:22 22:16:57 78° 311° (NW) 22:21:43 436.795
ANTELSAT 20 Dec 22:13:40 22:17:15 21° 91° (E) 22:20:51 437.575/2403.000
HUMSAT D 20 Dec 22:19:11 22:23:17 65° 258° (WSW) 22:27:30 437.325/437.525
QB50P1 20 Dec 22:19:25 22:21:44 14° 89° (E) 22:24:02 145.935-145.965
Oscar 11 20 Dec 22:26:50 22:29:53 19° 269° (W) 22:32:58 145.826/435.025
UKube-1 20 Dec 22:35:27 22:38:31 19° 268° (W) 22:41:36 .
DANDE 20 Dec 22:36:36 22:42:19 24° 276° (W) 22:48:38 436.750
BEESAT 2 20 Dec 22:39:07 22:43:05 41° 239° (WSW) 22:46:59 435.950
POPSAT HIP 1 20 Dec 22:47:10 22:50:47 26° 94° (E) 22:54:23 437.405
TIGRISAT 20 Dec 22:48:28 22:52:57 42° 98° (E) 22:57:25 435.000
CUBEBUG 2 20 Dec 22:48:42 22:51:28 17° 271° (W) 22:54:18 437.445
ZACube-1 20 Dec 22:58:00 23:00:55 18° 270° (W) 23:03:53 437.345
VELOX 1 20 Dec 22:59:31 23:03:21 29° 265° (W) 23:07:13 145.980
ESTCUBE 1 20 Dec 23:02:03 23:06:33 62° 258° (WSW) 23:11:04 437.505/2401.250
BUGSAT 1 20 Dec 23:12:40 23:16:27 36° 98° (E) 23:20:14 437.445
TISAT 1 20 Dec 23:13:53 23:17:55 48° 70° (ENE) 23:21:59 437.305
DUCHIFAT 1 20 Dec 23:14:43 23:18:51 48° 100° (E) 23:22:58 145.980
UNISAT 6 20 Dec 23:17:39 23:22:23 80° 103° (ESE) 23:27:07 437.425
SPROUT 20 Dec 23:17:59 23:22:06 49° 70° (ENE) 23:26:15 437.525
QB50P2 20 Dec 23:28:24 23:32:41 69° 102° (ESE) 23:36:57 145.880/145.840
50 SAT 20 Dec 23:32:41 23:35:02 15° 271° (W) 23:37:24 437.505
POLYITAN 1 20 Dec 23:37:20 23:41:39 84° 104° (ESE) 23:45:57 437.675
BEESAT 3 20 Dec 23:39:08 23:40:31 11° 251° (WSW) 23:41:54 437.485
NANOSAT C BR1 20 Dec 23:39:20 23:43:36 87° 103° (ESE) 23:47:53 145.865
PCSat 20 Dec 23:39:43 23:44:47 41° 245° (WSW) 23:49:49 145.827
AUBIESAT-1 20 Dec 23:40:56 23:44:00 17° 51° (NE) 23:47:03 437.475
AISAT 20 Dec 23:45:57 23:47:15 11° 273° (W) 23:48:34 437.250
AIST 2 20 Dec 23:45:59 23:49:16 22° 246° (WSW) 23:52:31 435.215
CUBEBUG 1 20 Dec 23:48:10 23:51:42 24° 267° (W) 23:55:14 437.445
ANTELSAT 20 Dec 23:49:46 23:54:21 54° 290° (WNW) 23:58:58 437.575/2403.000
YUBILEINY 20 Dec 23:52:16 00:00:43 58° 91° (E) 00:09:10 435.215
QB50P1 20 Dec 23:53:51 23:58:05 68° 287° (WNW) 00:02:19 145.935-145.965
SO-50 20 Dec 23:54:41 23:58:16 21° 333° (NNW) 00:01:57 436.795
M-CUBED/EXP-1 PRIME 21 Dec 00:05:30 00:09:34 27° 57° (ENE) 00:13:39 437.505
SWISSCUBE 21 Dec 00:07:50 00:12:10 35° 65° (ENE) 00:16:31 437.505
ITUPSAT 1 21 Dec 00:08:31 00:12:47 33° 65° (ENE) 00:17:04 437.325
RS-15 21 Dec 00:15:27 00:18:13 11° 269° (W) 00:21:01 29.354- 29.394
POPSAT HIP 1 21 Dec 00:22:51 00:26:45 36° 292° (WNW) 00:30:40 437.405
TIGRISAT 21 Dec 00:25:33 00:29:31 28° 296° (WNW) 00:33:30 435.000
BEESAT 21 Dec 00:32:23 00:37:02 53° 70° (ENE) 00:41:42 436.000
BUGSAT 1 21 Dec 00:48:32 00:51:48 24° 296° (WNW) 00:55:05 437.445
TISAT 1 21 Dec 00:50:59 00:54:01 19° 268° (W) 00:57:05 437.305
DUCHIFAT 1 21 Dec 00:51:14 00:54:25 21° 298° (WNW) 00:57:36 145.980
SPROUT 21 Dec 00:55:21 00:58:28 20° 269° (W) 01:01:36 437.525
UNISAT 6 21 Dec 00:55:42 00:58:36 17° 302° (WNW) 01:01:32 437.425
O/OREOS (USA 219) 21 Dec 01:05:21 01:09:44 61° 112° (ESE) 01:14:09 437.305
QB50P2 21 Dec 01:05:31 01:08:07 16° 301° (WNW) 01:10:43 145.880/145.840
AUBIESAT-1 21 Dec 01:13:24 01:18:16 86° 69° (ENE) 01:23:11 437.475
POLYITAN 1 21 Dec 01:14:52 01:17:00 14° 303° (WNW) 01:19:07 437.675
NANOSAT C BR1 21 Dec 01:16:54 01:18:52 13° 303° (WNW) 01:20:51 145.865
Oscar 19 21 Dec 01:20:58 01:25:33 30° 95° (E) 01:30:07 437.125/150
STARS 21 Dec 01:26:46 01:30:30 28° 64° (ENE) 01:34:17 437.465
KKS-1 21 Dec 01:30:43 01:34:54 43° 68° (ENE) 01:39:07 437.445
Gurwin Techsat 1B 21 Dec 01:37:13 01:38:30 11° 84° (E) 01:39:47 435.225
ITAMSAT 1 21 Dec 01:38:18 01:41:42 17° 89° (E) 01:45:04 435.822/435.867
SO-50 21 Dec 01:38:29 01:40:36 13° 358° (N) 01:42:43 436.795
M-CUBED/EXP-1 PRIME 21 Dec 01:39:30 01:44:16 53° 255° (WSW) 01:49:06 437.505
SWISSCUBE 21 Dec 01:45:42 01:50:02 33° 264° (W) 01:54:24 437.505
ITUPSAT 1 21 Dec 01:46:13 01:50:38 36° 263° (W) 01:55:05 437.325
YUBILEINY 21 Dec 01:49:54 01:57:55 39° 294° (WNW) 02:05:59 435.215
BEESAT 21 Dec 02:11:29 02:15:11 22° 268° (W) 02:18:54 436.000
AIST 1 21 Dec 02:12:37 02:14:02 11° 61° (ENE) 02:15:26
MOZHAYETS 4 21 Dec 02:45:43 02:47:35 12° 55° (NE) 02:49:28
O/OREOS (USA 219) 21 Dec 02:46:07 02:49:32 21° 313° (NW) 02:52:59 437.305
HORYU 2 21 Dec 02:49:42 02:52:48 18° 91° (E) 02:55:53 437.375
AUBIESAT-1 21 Dec 02:51:03 02:53:48 15° 267° (W) 02:56:34 437.475
Oscar 19 21 Dec 03:00:07 03:05:02 43° 293° (WNW) 03:09:55 437.125/150
STARS 21 Dec 03:02:51 03:06:53 36° 263° (W) 03:10:58 437.465
KKS-1 21 Dec 03:08:11 03:11:44 24° 267° (W) 03:15:20 437.445
Gurwin Techsat 1B 21 Dec 03:14:07 03:19:27 71° 103° (ESE) 03:24:44 435.225
ITAMSAT 1 21 Dec 03:16:35 03:21:46 75° 288° (WNW) 03:26:55 435.822/435.867
SO-50 21 Dec 03:19:43 03:23:02 18° 22° (NNE) 03:26:24 436.795
AO-7 21 Dec 03:43:42 03:50:49 30° 93° (E) 03:57:52 29.400- 29.500
AIST 1 21 Dec 03:48:06 03:52:25 90° 86° (E) 03:56:40
GONETS M04 21 Dec 03:56:04 04:00:38 15° 71° (ENE) 04:05:12
YUBILEINY 21 Dec 03:57:25 03:58:00 10° 322° (NW) 03:58:36 435.215
JAS-2 21 Dec 04:17:17 04:20:38 16° 85° (E) 04:23:50 435.910
MOZHAYETS 4 21 Dec 04:19:23 04:24:01 76° 74° (ENE) 04:28:42
VERMONT LUNAR 21 Dec 04:20:52 04:23:14 17° 167° (SSE) 04:25:35 437.305
HORYU 2 21 Dec 04:25:23 04:29:51 59° 289° (WNW) 04:34:18 437.375
STRAND 1 21 Dec 04:31:58 04:34:17 13° 52° (NE) 04:36:35 437.568
PHONESAT 2.4 21 Dec 04:37:11 04:39:33 17° 166° (SSE) 04:41:56 2401.200-2431.200
PRISM 21 Dec 04:53:13 04:56:55 30° 66° (ENE) 05:00:39 437.425
Gurwin Techsat 1B 21 Dec 04:55:00 04:58:54 21° 302° (WNW) 05:02:48 435.225
ITAMSAT 1 21 Dec 04:57:50 05:00:25 14° 307° (NW) 05:03:00 435.822/435.867
SO-50 21 Dec 04:59:50 05:04:38 54° 44° (NE) 05:09:27 436.795
AO-7 21 Dec 05:35:59 05:44:21 75° 294° (WNW) 05:52:40 29.400- 29.500
CUBESAT XI-V 21 Dec 05:44:10 05:48:38 47° 70° (ENE) 05:53:06 437.345
GONETS M04 21 Dec 05:46:58 05:55:40 67° 93° (E) 06:04:24
VERMONT LUNAR 21 Dec 05:58:13 06:00:52 20° 184° (S) 06:03:31 437.305
MOZHAYETS 4 21 Dec 05:59:15 06:01:49 15° 272° (W) 06:04:24
JAS-2 21 Dec 06:00:52 06:06:42 81° 287° (WNW) 06:11:59 435.910
STRAND 1 21 Dec 06:07:31 06:12:36 71° 72° (ENE) 06:17:42 437.568
PHONESAT 2.4 21 Dec 06:14:45 06:17:33 21° 183° (S) 06:20:20 2401.200-2431.200
Cubesat XI-IV 21 Dec 06:16:07 06:21:00 35° 96° (E) 06:25:51 437.490
PRISM 21 Dec 06:28:39 06:32:26 31° 264° (W) 06:36:13 437.425
SO-50 21 Dec 06:40:47 06:44:58 29° 244° (WSW) 06:49:10 436.795
CUTE-I 21 Dec 06:49:01 06:54:19 65° 102° (ESE) 06:59:35 437.470
CUBESAT XI-V 21 Dec 07:22:35 07:26:19 23° 268° (W) 07:30:03 437.345
AO-7 21 Dec 07:29:45 07:35:54 24° 317° (NW) 07:42:03 29.400- 29.500
VERMONT LUNAR 21 Dec 07:37:05 07:38:24 12° 201° (SSW) 07:39:44 437.305
GONETS M04 21 Dec 07:45:19 07:53:10 35° 296° (WNW) 08:01:04
JAS-2 21 Dec 07:47:26 07:50:48 16° 310° (NW) 07:54:01 435.910
STRAND 1 21 Dec 07:48:53 07:52:19 18° 270° (W) 07:55:46 437.568
PHONESAT 2.4 21 Dec 07:53:41 07:55:29 13° 200° (SSW) 07:57:16 2401.200-2431.200
Cubesat XI-IV 21 Dec 07:56:14 08:01:08 39° 295° (WNW) 08:06:01 437.490
BRITE-PL 21 Dec 08:14:12 08:17:19 17° 91° (E) 08:20:35 437.365/2234.400
HO-68 21 Dec 08:23:40 08:29:31 26° 92° (E) 08:35:18 435.675
MaSat-1 21 Dec 08:26:03 08:26:34 11° 110° (ESE) 08:27:05 437.345
CUTE-I 21 Dec 08:29:52 08:33:58 23° 302° (WNW) 08:38:03 437.470
GOMX 1 21 Dec 08:37:00 08:40:36 21° 92° (E) 08:44:21 467.674
AAUSAT CUBESAT 2 21 Dec 08:43:44 08:46:33 17° 90° (E) 08:49:20 437.432
UNISAT 6 21 Dec 08:46:18 08:49:04 16° 58° (ENE) 08:51:52 437.425
QB50P2 21 Dec 08:52:46 08:54:27 12° 56° (ENE) 08:56:09 145.880/145.840
DOVE 4 21 Dec 08:58:54 09:02:50 25° 93° (E) 09:06:56 437.250
CANX-2 21 Dec 08:59:01 09:03:06 39° 97° (E) 09:07:08 2200.000
POLYITAN 1 21 Dec 09:01:09 09:03:27 15° 58° (ENE) 09:05:46 437.675
NANOSAT C BR1 21 Dec 09:02:40 09:05:01 15° 58° (ENE) 09:07:22 145.865
QB50P1 21 Dec 09:16:24 09:19:25 19° 61° (ENE) 09:22:27 145.935-145.965
ANTELSAT 21 Dec 09:16:58 09:20:47 29° 64° (ENE) 09:24:42 437.575/2403.000
CUSAT 1 21 Dec 09:17:03 09:20:35 30° 87° (E) 09:25:08 437.405
COMPASS 1 21 Dec 09:18:44 09:22:48 41° 98° (E) 09:26:50 437.405
CINEMA 3 21 Dec 09:19:02 09:22:54 24° 93° (E) 09:26:51 145.822/145.860
SEEDS 21 Dec 09:25:13 09:29:28 57° 100° (E) 09:33:41 437.485
CUTE 1.7 + AOD 2 21 Dec 09:29:36 09:33:57 73° 102° (ESE) 09:38:15 437.475
DELFI C3 21 Dec 09:31:15 09:34:30 22° 93° (E) 09:37:44 145.870
O/OREOS (USA 219) 21 Dec 09:32:07 09:36:14 33° 54° (NE) 09:40:21 437.305
FUNcube-1 21 Dec 09:32:26 09:35:02 15° 89° (E) 09:37:39 145.935
UWE-3 21 Dec 09:34:36 09:37:51 19° 90° (E) 09:41:07 435.000/436.395/437.385
POPSAT HIP 1 21 Dec 09:44:14 09:48:02 34° 67° (ENE) 09:51:51 437.405
DX 1 21 Dec 09:47:41 09:51:28 28° 96° (E) 09:55:14 434.975-435.025
TIGRISAT 21 Dec 09:51:23 09:55:41 59° 71° (ENE) 10:00:08 435.000
BRITE-PL 21 Dec 09:51:37 09:56:13 67° 287° (WNW) 10:01:11 437.365/2234.400
AISAT 21 Dec 09:54:18 09:56:27 13° 88° (E) 09:58:34 437.250
YUBILEINY 21 Dec 09:57:10 10:05:02 36° 65° (ENE) 10:12:51 435.215
MaSat-1 21 Dec 09:57:42 09:59:36 24° 307° (NW) 10:01:29 437.345
HUMSAT D 21 Dec 10:00:42 10:03:29 17° 90° (E) 10:06:15 437.325/437.525
BUGSAT 1 21 Dec 10:06:56 10:10:50 45° 70° (ENE) 10:14:43 437.445
Oscar 11 21 Dec 10:08:32 10:12:53 62° 101° (E) 10:17:12 145.826/435.025
HO-68 21 Dec 10:10:44 10:17:52 73° 292° (WNW) 10:24:58 435.675
DUCHIFAT 1 21 Dec 10:11:25 10:15:33 62° 72° (ENE) 10:19:44 145.980
DANDE 21 Dec 10:12:01 10:15:47 84° 100° (E) 10:20:59 436.750
GOMX 1 21 Dec 10:14:25 10:19:00 56° 288° (WNW) 10:23:55 467.674
UKube-1 21 Dec 10:17:37 10:21:54 54° 101° (E) 10:26:08 .
AAUSAT CUBESAT 2 21 Dec 10:18:24 10:22:34 55° 288° (WNW) 10:26:42 437.432
RS-15 21 Dec 10:19:06 10:25:57 19° 98° (E) 10:32:47 29.354- 29.394
UNISAT 6 21 Dec 10:20:55 10:25:18 73° 257° (WSW) 10:29:51 437.425
QB50P2 21 Dec 10:25:29 10:29:42 88° 75° (ENE) 10:33:58 145.880/145.840
CUBEBUG 2 21 Dec 10:33:36 10:38:14 74° 103° (ESE) 10:42:58 437.445
POLYITAN 1 21 Dec 10:34:39 10:38:51 76° 257° (WSW) 10:43:07 437.675
CANX-2 21 Dec 10:35:18 10:38:53 26° 296° (WNW) 10:42:27 2200.000
NANOSAT C BR1 21 Dec 10:36:10 10:40:21 74° 257° (WSW) 10:44:36 145.865
DOVE 4 21 Dec 10:36:16 10:40:47 47° 290° (WNW) 10:45:33 437.250
ZACube-1 21 Dec 10:40:49 10:45:20 65° 102° (ESE) 10:49:54 437.345
VELOX 1 21 Dec 10:45:38 10:49:48 39° 98° (E) 10:53:57 145.980
QB50P1 21 Dec 10:50:52 10:54:58 52° 260° (W) 10:59:07 145.935-145.965
ESTCUBE 1 21 Dec 10:51:32 10:54:58 21° 92° (E) 10:58:21 437.505/2401.250
ANTELSAT 21 Dec 10:53:27 10:57:30 35° 264° (W) 11:01:40 437.575/2403.000
COMPASS 1 21 Dec 10:54:54 10:58:19 24° 296° (WNW) 11:01:43 437.405
CINEMA 3 21 Dec 10:55:47 11:00:18 48° 290° (WNW) 11:04:59 145.822/145.860
CUSAT 1 21 Dec 10:59:54 11:03:37 31° 297° (WNW) 11:08:28 437.405
SEEDS 21 Dec 11:01:55 11:04:55 19° 299° (WNW) 11:07:53 437.485
DELFI C3 21 Dec 11:06:03 11:09:57 40° 291° (WNW) 11:13:47 145.870
Oscar 19 21 Dec 11:06:24 11:08:25 12° 51° (NE) 11:10:27 437.125/150
50 SAT 21 Dec 11:06:48 11:10:55 58° 101° (E) 11:15:01 437.505
CUTE 1.7 + AOD 2 21 Dec 11:06:48 11:09:21 16° 301° (WNW) 11:11:54 437.475
FUNcube-1 21 Dec 11:07:22 11:11:52 72° 286° (WNW) 11:16:26 145.935
UWE-3 21 Dec 11:10:14 11:14:44 59° 288° (WNW) 11:19:18 435.000/436.395/437.385
O/OREOS (USA 219) 21 Dec 11:11:34 11:15:38 34° 253° (WSW) 11:19:43 437.305
POPSAT HIP 1 21 Dec 11:20:23 11:23:59 27° 265° (W) 11:27:36 437.405
DX 1 21 Dec 11:23:49 11:27:46 34° 294° (WNW) 11:31:41 434.975-435.025
AISAT 21 Dec 11:29:11 11:33:38 78° 286° (WNW) 11:38:04 437.250
TIGRISAT 21 Dec 11:29:56 11:32:52 17° 271° (W) 11:35:52 435.000
CUBEBUG 1 21 Dec 11:32:10 11:36:22 47° 99° (E) 11:40:32 437.445
BRITE-PL 21 Dec 11:32:51 11:34:01 11° 305° (NW) 11:35:11 437.365/2234.400
HUMSAT D 21 Dec 11:35:24 11:39:40 60° 288° (WNW) 11:43:57 437.325/437.525
BUGSAT 1 21 Dec 11:43:38 11:46:34 19° 268° (W) 11:49:30 437.445
Oscar 11 21 Dec 11:45:41 11:48:38 18° 300° (WNW) 11:51:34 145.826/435.025
DUCHIFAT 1 21 Dec 11:49:24 11:51:51 15° 271° (W) 11:54:18 145.980
YUBILEINY 21 Dec 11:53:52 12:02:24 63° 268° (W) 12:10:55 435.215
UKube-1 21 Dec 11:54:34 11:57:42 20° 299° (WNW) 12:00:50 .
DANDE 21 Dec 11:58:19 12:00:33 14° 310° (NW) 12:03:06 436.750
HO-68 21 Dec 11:59:40 12:04:28 20° 313° (NW) 12:09:15 435.675
QB50P2 21 Dec 12:05:19 12:06:16 11° 273° (W) 12:07:13 145.880/145.840
CUBEBUG 2 21 Dec 12:11:29 12:14:26 17° 301° (WNW) 12:17:26 437.445
ZACube-1 21 Dec 12:18:11 12:21:16 18° 300° (WNW) 12:24:23 437.345
VELOX 1 21 Dec 12:22:32 12:26:14 27° 296° (WNW) 12:29:55 145.980
RS-15 21 Dec 12:25:21 12:36:09 72° 121° (ESE) 12:47:04 29.354- 29.394
ESTCUBE 1 21 Dec 12:27:45 12:32:07 49° 290° (WNW) 12:36:26 437.505/2401.250
TISAT 1 21 Dec 12:30:29 12:34:37 50° 100° (E) 12:38:43 437.305
SPROUT 21 Dec 12:36:38 12:40:52 55° 100° (E) 12:45:06 437.525
BEESAT 2 21 Dec 12:39:43 12:41:56 14° 111° (ESE) 12:44:09 435.950
Oscar 19 21 Dec 12:41:43 12:46:48 65° 71° (ENE) 12:51:56 437.125/150
50 SAT 21 Dec 12:42:59 12:45:45 18° 299° (WNW) 12:48:30 437.505
PCSat 21 Dec 12:44:55 12:47:36 14° 103° (ESE) 12:50:18 145.827
FUNcube-1 21 Dec 12:46:02 12:47:27 11° 305° (NW) 12:48:52 145.935
AO-7 21 Dec 12:58:31 13:03:46 19° 38° (NE) 13:09:01 29.400- 29.500
ITAMSAT 1 21 Dec 12:59:50 13:04:38 40° 66° (ENE) 13:09:27 435.822/435.867
Gurwin Techsat 1B 21 Dec 13:00:44 13:05:09 28° 61° (ENE) 13:09:36 435.225
AISAT 21 Dec 13:07:55 13:09:31 12° 305° (NW) 13:11:07 437.250
CUBEBUG 1 21 Dec 13:09:08 13:12:28 22° 298° (WNW) 13:15:48 437.445
BEESAT 3 21 Dec 13:34:52 13:38:50 49° 122° (ESE) 13:42:53 437.485
SWISSCUBE 21 Dec 13:41:32 13:46:09 46° 99° (E) 13:50:43 437.505
ITUPSAT 1 21 Dec 13:42:25 13:46:59 43° 99° (E) 13:51:31 437.325
AIST 2 21 Dec 13:47:27 13:51:11 31° 118° (ESE) 13:54:59 435.215
HORYU 2 21 Dec 13:52:01 13:55:49 28° 64° (ENE) 13:59:39 437.375
YUBILEINY 21 Dec 13:53:26 13:57:19 14° 291° (WNW) 14:01:13 435.215
GONETS M04 21 Dec 13:58:16 14:00:27 11° 39° (NE) 14:02:39
BEESAT 21 Dec 14:06:16 14:11:03 73° 103° (ESE) 14:15:48 436.000
TISAT 1 21 Dec 14:07:02 14:10:08 20° 298° (WNW) 14:13:14 437.305
ISS 21 Dec 14:11:26 14:14:29 35° 147° (SSE) 14:17:33 145.825
SPROUT 21 Dec 14:13:34 14:16:36 19° 299° (WNW) 14:19:39 437.525
BEESAT 2 21 Dec 14:15:27 14:19:36 81° 309° (NW) 14:23:49 435.950
Oscar 19 21 Dec 14:22:53 14:26:37 20° 270° (W) 14:30:23 437.125/150
PCSat 21 Dec 14:24:43 14:30:08 80° 123° (ESE) 14:35:36 145.827
AUBIESAT-1 21 Dec 14:27:49 14:31:54 36° 102° (ESE) 14:35:38 437.475
JAS-2 21 Dec 14:33:38 14:38:16 19° 52° (NE) 14:42:37 435.910
RS-15 21 Dec 14:38:44 14:49:14 50° 329° (NNW) 14:59:59 29.354- 29.394
ITAMSAT 1 21 Dec 14:39:33 14:44:12 33° 264° (W) 14:48:52 435.822/435.867
Gurwin Techsat 1B 21 Dec 14:39:42 14:44:51 52° 260° (W) 14:50:04 435.225
AO-7 21 Dec 14:46:49 14:54:53 58° 61° (ENE) 15:03:01 29.400- 29.500
STARS 21 Dec 14:48:37 14:52:35 31° 96° (E) 14:56:32 437.465
M-CUBED/EXP-1 PRIME 21 Dec 14:54:00 14:58:29 73° 108° (ESE) 15:02:33 437.505
KKS-1 21 Dec 14:54:13 14:58:36 50° 100° (E) 15:02:57 437.445
BEESAT 3 21 Dec 15:13:36 15:17:14 28° 323° (NW) 15:20:54 437.485
SWISSCUBE 21 Dec 15:19:51 15:23:47 26° 298° (WNW) 15:27:41 437.505
ITUPSAT 1 21 Dec 15:20:40 15:24:42 28° 297° (WNW) 15:28:42 437.325
AIST 2 21 Dec 15:25:38 15:29:43 42° 317° (NW) 15:33:50 435.215
HORYU 2 21 Dec 15:28:11 15:32:22 38° 262° (W) 15:36:35 437.375
BEESAT 21 Dec 15:45:11 15:48:23 18° 302° (WNW) 15:51:34 436.000
ISS 21 Dec 15:47:40 15:50:57 67° 346° (NNW) 15:54:15 145.825
GONETS M04 21 Dec 15:52:13 16:00:27 42° 67° (ENE) 16:08:34
BEESAT 2 21 Dec 15:55:31 15:58:30 19° 331° (NNW) 16:01:31 435.950
AUBIESAT-1 21 Dec 16:02:55 16:06:45 29° 302° (WNW) 16:10:18 437.475
Cubesat XI-IV 21 Dec 16:05:03 16:08:14 16° 54° (NE) 16:11:25 437.490
PCSat 21 Dec 16:09:38 16:14:10 26° 324° (NW) 16:18:43 145.827
MOZHAYETS 4 21 Dec 16:12:09 16:14:36 14° 87° (E) 16:17:01
JAS-2 21 Dec 16:14:56 16:22:25 72° 71° (ENE) 16:29:09 435.910
AIST 1 21 Dec 16:21:52 16:26:00 42° 93° (E) 16:30:08
STARS 21 Dec 16:25:05 16:29:04 33° 294° (WNW) 16:33:02 437.465
M-CUBED/EXP-1 PRIME 21 Dec 16:29:59 16:32:55 17° 309° (NW) 16:35:42 437.505
KKS-1 21 Dec 16:31:30 16:34:57 22° 298° (WNW) 16:38:23 437.445
CUTE-I 21 Dec 16:36:29 16:40:51 27° 60° (ENE) 16:45:13 437.470
AO-7 21 Dec 16:40:17 16:47:59 40° 263° (W) 16:55:46 29.400- 29.500
RS-15 21 Dec 16:54:54 17:04:46 36° 3° (N) 17:14:56 29.354- 29.394
BEESAT 3 21 Dec 16:55:33 16:56:45 11° 346° (NNW) 16:57:58 437.485
AIST 2 21 Dec 17:07:11 17:09:26 14° 340° (NNW) 17:11:42 435.215
ISS 21 Dec 17:24:32 17:27:47 55° 6° (N) 17:31:01 145.825
Cubesat XI-IV 21 Dec 17:42:14 17:47:35 84° 73° (ENE) 17:52:56 437.490
MOZHAYETS 4 21 Dec 17:47:45 17:52:25 78° 286° (WNW) 17:57:01
GONETS M04 21 Dec 17:49:08 17:57:34 54° 270° (W) 18:05:54
MaSat-1 21 Dec 17:50:25 17:52:46 82° 59° (ENE) 17:55:14 437.345
PCSat 21 Dec 17:57:20 17:59:33 12° 350° (N) 18:01:46 145.827
AIST 1 21 Dec 18:00:26 18:03:52 22° 292° (WNW) 18:07:19
JAS-2 21 Dec 18:01:42 18:07:53 27° 269° (W) 18:13:39 435.910
PRISM 21 Dec 18:07:34 18:11:09 27° 95° (E) 18:14:42 437.425
CUSAT 1 21 Dec 18:07:59 18:11:53 15° 51° (NE) 18:16:02 437.405
STRAND 1 21 Dec 18:15:01 18:18:21 17° 89° (E) 18:21:41 437.568
CUTE-I 21 Dec 18:15:25 18:20:37 54° 259° (W) 18:25:51 437.470
BEESAT 3 21 Dec 18:36:38 18:36:51 10° 10° (N) 18:37:03 437.485
CUTE 1.7 + AOD 2 21 Dec 18:53:46 18:55:31 12° 57° (ENE) 18:57:16 437.475
HO-68 21 Dec 18:56:45 19:02:56 33° 56° (NE) 19:09:08 435.675
ISS 21 Dec 19:01:11 19:04:26 62° 206° (SSW) 19:07:40 145.825
DANDE 21 Dec 19:04:12 19:10:20 27° 62° (ENE) 19:17:13 436.750
RS-15 21 Dec 19:09:13 19:20:07 55° 35° (NE) 19:31:25 29.354- 29.394
CUBESAT XI-V 21 Dec 19:14:03 19:18:40 67° 102° (ESE) 19:23:14 437.345
BEESAT 2 21 Dec 19:16:38 19:18:32 13° 19° (NNE) 19:20:26 435.950
Cubesat XI-IV 21 Dec 19:25:13 19:28:22 16° 272° (W) 19:31:31 437.490
MOZHAYETS 4 21 Dec 19:26:58 19:28:52 12° 305° (NW) 19:30:45
BRITE-PL 21 Dec 19:29:47 19:33:14 26° 65° (ENE) 19:36:44 437.365/2234.400
Oscar 11 21 Dec 19:34:32 19:36:05 12° 56° (NE) 19:37:37 145.826/435.025
AAUSAT CUBESAT 2 21 Dec 19:39:06 19:42:17 21° 63° (ENE) 19:45:29 437.432
PCSat 21 Dec 19:42:42 19:45:27 14° 17° (NNE) 19:48:13 145.827
PRISM 21 Dec 19:42:59 19:46:44 33° 294° (WNW) 19:50:26 437.425
UKube-1 21 Dec 19:43:55 19:45:28 12° 55° (NE) 19:47:01 .
CUSAT 1 21 Dec 19:49:15 19:56:35 52° 71° (ENE) 20:04:49 437.405
GONETS M04 21 Dec 19:49:53 19:52:11 11° 293° (WNW) 19:54:30
GOMX 1 21 Dec 19:49:56 19:53:32 30° 66° (ENE) 19:57:14 467.674
STRAND 1 21 Dec 19:53:01 19:58:06 73° 288° (WNW) 20:03:10 437.568
CANX-2 21 Dec 19:56:02 20:00:08 47° 70° (ENE) 20:04:17 2200.000
CUBEBUG 2 21 Dec 20:02:17 20:04:26 14° 57° (ENE) 20:06:37 437.445
ZACube-1 21 Dec 20:08:07 20:09:40 12° 56° (NE) 20:11:14 437.345
DOVE 4 21 Dec 20:09:19 20:13:05 35° 67° (ENE) 20:16:58 437.250
BEESAT 3 21 Dec 20:13:09 20:16:31 23° 34° (NNE) 20:19:53 437.485
COMPASS 1 21 Dec 20:14:15 20:18:20 49° 71° (ENE) 20:22:27 437.405
SEEDS 21 Dec 20:21:23 20:25:37 68° 73° (ENE) 20:29:53 437.485
DELFI C3 21 Dec 20:23:53 20:27:17 25° 65° (ENE) 20:30:42 145.870
CINEMA 3 21 Dec 20:25:26 20:29:09 32° 66° (ENE) 20:33:00 145.822/145.860
CUTE 1.7 + AOD 2 21 Dec 20:26:28 20:30:45 86° 76° (ENE) 20:35:06 437.475
AIST 2 21 Dec 20:27:12 20:30:16 19° 28° (NNE) 20:33:19 435.215
